TimeEDT,TemperatureF,Dew PointF,Humidity,Sea Level PressureIn,VisibilityMPH,Wind Direction,Wind SpeedMPH,Gust SpeedMPH,PrecipitationIn,Events,Conditions,WindDirDegrees,DateUTC
12:53 AM,55.9,46.9,72,30.11,10.0,ESE,5.8,-,N/A,,Clear,110,2013-09-27 04:53:00
1:53 AM,51.1,46.9,86,30.12,10.0,Calm,Calm,-,N/A,,Clear,0,2013-09-27 05:53:00
2:53 AM,46.0,45.0,96,30.13,10.0,Calm,Calm,-,N/A,,Clear,0,2013-09-27 06:53:00
3:53 AM,46.0,46.0,100,30.14,10.0,Calm,Calm,-,N/A,,Clear,0,2013-09-27 07:53:00
4:53 AM,45.0,45.0,100,30.15,10.0,Calm,Calm,-,N/A,,Clear,0,2013-09-27 08:53:00
5:53 AM,48.9,44.1,83,30.16,10.0,SE,4.6,-,N/A,,Clear,130,2013-09-27 09:53:00
6:53 AM,52.0,42.1,69,30.17,10.0,SE,4.6,-,N/A,,Clear,140,2013-09-27 10:53:00
7:53 AM,52.0,43.0,71,30.19,10.0,SE,4.6,-,N/A,,Clear,130,2013-09-27 11:53:00
8:53 AM,55.9,48.0,75,30.19,10.0,SE,6.9,-,N/A,,Clear,130,2013-09-27 12:53:00
9:53 AM,62.1,50.0,65,30.20,10.0,SE,9.2,-,N/A,,Clear,130,2013-09-27 13:53:00
10:53 AM,68.0,50.0,52,30.20,10.0,SE,11.5,-,N/A,,Clear,140,2013-09-27 14:53:00
11:53 AM,71.1,50.0,47,30.20,10.0,SE,9.2,-,N/A,,Clear,140,2013-09-27 15:53:00
12:53 PM,73.9,48.0,40,30.19,10.0,South,9.2,-,N/A,,Clear,170,2013-09-27 16:53:00
1:53 PM,77.0,48.9,37,30.17,10.0,East,6.9,-,N/A,,Clear,100,2013-09-27 17:53:00
2:53 PM,78.1,50.0,37,30.14,10.0,ESE,6.9,-,N/A,,Clear,120,2013-09-27 18:53:00
3:53 PM,79.0,46.9,32,30.13,10.0,SE,10.4,-,N/A,,Clear,130,2013-09-27 19:53:00
4:53 PM,79.0,48.9,35,30.12,10.0,ESE,9.2,-,N/A,,Clear,120,2013-09-27 20:53:00
5:53 PM,78.1,51.1,39,30.11,10.0,SE,6.9,-,N/A,,Clear,130,2013-09-27 21:53:00
6:53 PM,75.0,52.0,44,30.11,10.0,SSE,5.8,-,N/A,,Clear,150,2013-09-27 22:53:00
7:53 PM,64.0,54.0,70,30.11,10.0,Calm,Calm,-,N/A,,Clear,0,2013-09-27 23:53:00
8:53 PM,57.9,54.0,87,30.12,10.0,East,3.5,-,N/A,,Clear,80,2013-09-28 00:53:00
9:53 PM,55.9,54.0,93,30.12,10.0,Calm,Calm,-,N/A,,Clear,0,2013-09-28 01:53:00
10:53 PM,61.0,53.1,75,30.13,10.0,ESE,9.2,-,N/A,,Clear,120,2013-09-28 02:53:00
11:53 PM,60.1,53.1,78,30.13,10.0,ESE,8.1,-,N/A,,Clear,110,2013-09-28 03:53:00